Location: Hamayl? Da??
(36.7028°N, 30.1716°E)
Time: 11:14:50
(UTC+00:00)

Cosmos 676 Rocket - Pass Details

Date: 04 August 2024
Orbit: 752 x 781 km, 74.0° (Epoch: 11 September)

Event Time Altitude Azimuth Distance (km) Brightness Sun altitude
Rises 19:31:24 0° 338° (NNW) 3,210 8.4 -25.2°
Reaches altitude 10° 19:33:46 10° 336° (NNW) 2,284 7.4 -25.5°
Maximum altitude 19:38:53 64° 256° (WSW) 836 4.2 -26.2°
Enters shadow 19:39:21 61° 226° (SW) 858 4.1 -26.3°
